Location: Unspecified
(0.0000°N, 0.0000°E)
Time: 05:51:22
(UTC+00:00)

Courier 1B Rocket - Visible Passes

Search period start: 20 April 2014 00:00
Search period end: 30 April 2014 00:00
Orbit: 921 x 1202 km, 28.2° (Epoch: 19 April)

Date Brightness Start Highest point End Pass type
(mag) Time Alt. Az. Time Alt. Az. Time Alt. Az.
20 Apr 5.4 03:45:24 64° N 03:45:24 64° N 03:51:45 10° NE visible
20 Apr 6.8 05:33:37 10° WNW 05:38:35 20° NNW 05:43:20 10° NNE visible
21 Apr 7.1 02:48:20 24° ENE 02:48:20 24° ENE 02:50:52 10° ENE visible
21 Apr 6.3 04:34:43 24° WNW 04:37:21 30° NNW 04:43:19 10° NNE visible
22 Apr 6.1 03:37:36 40° N 03:37:36 40° N 03:42:57 10° NE visible
22 Apr 7.1 05:27:03 10° NW 05:30:20 13° NNW 05:33:33 10° N visible
23 Apr 7.3 02:40:26 19° NE 02:40:26 19° NE 02:42:18 10° NE visible
23 Apr 6.7 04:26:48 18° NW 04:28:58 20° NNW 04:34:01 10° NNE visible
24 Apr 6.7 03:29:35 27° N 03:29:35 27° N 03:33:55 10° NNE visible
25 Apr 7.6 02:32:19 15° NE 02:32:19 15° NE 02:33:27 10° NE visible
25 Apr 7.1 04:18:41 13° NW 04:20:43 14° NNW 04:24:18 10° N visible
26 Apr 7.1 03:21:22 19° N 03:21:22 19° N 03:24:35 10° NNE visible
27 Apr 7.8 02:24:01 11° NNE 02:24:01 11° NNE 02:24:21 10° NNE visible
28 Apr 7.5 03:12:59 13° N 03:12:59 13° N 03:14:53 10° N visible
